{"data":{"norad_id":62829,"epoch":"2026-05-25T04:16:16.792032Z","epoch_age_seconds":56103,"freshness":"FRESH","line1":"1 62829U 25019A   26145.17797213  .00196001  00000+0  14913-2 0  9995","line2":"2 62829  43.0002 204.6454 0002040 278.7615  81.3021 15.70902475 75912","mean_motion":15.70902475,"eccentricity":0.000204,"inclination_deg":43.0002,"raan_deg":204.6454,"arg_perigee_deg":278.7615,"mean_anomaly_deg":81.3021,"bstar":0.0014913,"rev_number":7591,"period_min":91.667052723945,"perigee_km":354.94267372971,"apogee_km":357.69033075862,"semimajor_km":6734.4535022442,"source":"CELESTRAK","updated_at":"2026-05-25T13:38:19.777557Z"}}